RH
33 45 47 36 26 28 31 29 36 36 33 32 27 27 26 27 26 25 23 20 19 19 17 17 12 9 7 6 6 6 6 6 5 5 4 4 5 5 5 6 8 7 10 12 13 13 14
25 25 28 27 28 31 32 34 35 38 31 30 29 27 27 27 25 24 22 19 21 19 17 16 11 8 6 6 6 6 6 5 4 4 4 4 4 4 5 5 5 8 9 11 12 14 14
24 22 21 23 29 33 32 40 39 43 35 30 28 25 24 24 24 24 21 19 22 19 19 18 12 9 7 6 6 7 5 5 4 4 4 3 4 4 3 4 4 6 8 9 11 13 14
23 26 24 27 30 33 35 41 50 43 40 30 25 25 22 23 23 23 22 22 22 22 23 22 15 10 7 7 7 7 6 4 3 4 4 3 4 4 4 4 5 5 7 8 8 12 14
23 25 25 29 31 30 30 35 52 40 40 34 25 24 23 24 27 25 25 24 24 26 26 26 22 11 8 8 8 8 7 4 3 3 3 4 4 4 5 5 6 7 10 9 8 10 13
25 25 25 30 31 33 33 38 54 44 46 34 27 24 26 27 29 26 30 25 26 28 28 30 28 16 11 8 9 9 7 4 5 3 4 6 6 5 6 5 7 7 6 6 8 12 12
27 26 26 30 30 33 33 45 60 51 54 43 32 28 28 28 27 31 39 28 21 27 31 29 33 19 14 10 9 9 8 5 5 6 6 8 12 8 8 6 6 6 6 7 8 8 7
29 27 28 30 33 35 39 46 58 57 56 52 41 31 29 27 26 37 41 30 23 24 33 31 30 26 19 11 9 9 10 8 6 7 9 10 9 22 37 28 21 16 6 7 8 9 9
28 31 32 34 36 38 40 45 55 59 48 43 45 35 30 26 27 41 40 35 30 25 24 31 28 36 21 16 11 10 11 12 11 8 9 13 13 14 16 16 24 13 11 6 8 7 8
33 35 38 40 40 41 38 37 46 50 42 38 46 42 30 27 28 42 39 37 39 33 24 23 26 31 30 21 16 13 12 11 12 13 12 11 11 9 10 9 10 12 11 6 5 7 8
38 38 38 42 45 47 44 42 42 43 46 40 46 40 34 30 28 33 31 38 40 35 30 23 26 25 36 28 19 16 14 14 14 10 11 11 11 8 7 6 7 7 10 6 6 7 9
75 45 42 42 42 46 44 45 46 51 51 52 46 43 37 38 33 31 29 37 44 44 40 30 27 28 26 34 25 20 20 14 14 15 12 11 10 10 8 11 13 12 9 8 8 7 8
100 99 76 54 45 46 53 49 49 53 59 60 55 56 50 41 39 37 32 37 38 50 52 43 32 34 27 28 33 26 23 25 19 16 15 12 10 9 9 8 12 10 9 11 12 11 11
100 100 100 99 65 60 57 55 56 52 64 70 78 63 63 52 45 48 43 38 48 45 51 51 46 40 42 30 28 37 30 29 29 24 20 26 18 13 12 11 11 10 12 12 12 13 12
100 100 100 96 98 100 97 89 74 62 60 67 85 95 69 76 64 56 58 55 48 55 52 55 56 46 54 55 30 34 46 38 34 30 31 38 36 27 20 16 15 12 12 12 14 13 12
100 100 100 100 97 85 96 100 93 81 75 63 69 77 81 82 89 91 74 68 65 62 62 57 65 63 60 58 52 56 44 53 48 52 42 38 33 42 47 42 31 24 21 22 22 19 20
100 100 100 100 100 98 79 96 100 96 88 83 68 69 65 80 100 100 96 86 79 82 74 69 59 66 77 65 62 61 76 53 51 54 62 52 54 53 45 50 52 46 35 33 34 36 34
100 100 100 100 100 100 100 100 100 100 88 100 90 78 78 79 99 96 100 88 92 86 89 78 84 68 74 81 57 65 56 80 76 67 62 59 70 75 88 69 65 54 58 61 54 46 42
100 100 100 100 96 100 100 100 100 100 99 100 100 86 90 92 91 86 79 92 93 100 92 92 90 87 78 84 87 69 69 65 82 83 79 73 46 60 66 76 64 62 50 50 52 54 50
100 100 100 100 100 100 92 82 93 100 100 86 100 100 81 100 84 70 72 73 88 92 95 92 89 90 93 95 94 85 69 64 65 73 82 66 68 57 58 48 52 53 57 53 54 53 50
75 98 100 100 100 100 100 96 80 78 68 55 71 92 84 78 100 84 67 64 62 63 78 92 96 92 100 99 100 100 78 67 61 70 69 76 66 83 69 89 69 46 50 56 60 54 51
56 82 100 100 100 100 100 100 92 70 70 74 100 98 100 76 87 100 82 71 65 74 65 73 98 100 100 100 93 99 83 75 76 64 70 66 58 47 61 79 66 96 78 58 44 53 56
61 99 100 99 79 97 100 93 93 80 70 97 100 94 87 97 92 100 100 100 94 85 88 65 69 97 99 100 93 93 83 83 66 74 79 83 72 71 61 62 79 66 58 83 48 50 54
70 100 100 100 100 77 65 100 90 83 95 94 100 97 100 100 100 100 100 100 100 100 96 75 76 86 93 82 100 97 90 81 87 80 73 71 89 70 77 71 66 68 83 90 93 86 54
78 100 100 93 100 97 89 76 100 70 75 93 99 100 100 86 100 100 100 100 100 96 100 93 82 72 78 91 91 100 87 77 85 80 74 74 68 73 89 93 84 65 67 68 66 67 79
80 100 100 100 88 99 100 78 88 100 100 99 96 100 100 91 72 99 100 100 88 97 100 100 100 96 85 84 83 90 91 94 87 73 67 78 77 83 74 85 100 91 65 69 61 63 82
83 100 100 100 99 90 84 70 97 100 100 100 100 100 100 86 61 67 94 100 100 99 100 97 98 99 92 86 86 80 60 61 75 61 43 43 58 88 84 69 67 73 81 83 88 78 78
87 100 83 74 83 74 74 82 94 100 100 100 100 100 100 100 80 67 98 72 82 97 100 100 100 100 100 100 98 86 81 90 82 84 86 77 72 55 52 53 42 44 48 53 58 61 60
100 100 100 78 73 77 91 100 85 100 92 100 100 100 100 100 96 65 92 89 100 100 91 100 100 100 98 100 100 93 81 74 70 65 69 63 78 94 90 82 83 78 76 71 55 45 46
Wind_Speed
18 17 17 19 13 11 14 15 19 23 23 23 24 26 29 31 34 34 35 39 47 53 58 66 74 74 71 55 46 42 40 39 42 45 48 51 56 62 68 76 87 90 106 108 106 105 101
15 14 15 14 10 10 14 16 19 22 23 26 28 30 31 33 33 36 40 43 48 53 58 66 71 71 62 48 42 38 34 31 32 34 38 40 44 50 57 63 70 79 91 107 111 109 107
15 12 13 11 9 9 9 17 20 24 24 27 30 32 34 34 34 38 41 45 51 55 62 71 73 69 58 46 40 32 26 23 22 23 29 30 34 39 47 55 63 73 85 99 109 111 112
16 13 12 11 8 6 12 18 23 24 25 27 29 31 34 35 36 39 44 49 55 61 69 78 77 70 57 47 40 30 23 16 14 16 21 23 26 31 37 46 53 62 71 79 93 109 116
15 15 12 12 10 11 16 19 24 22 26 26 29 31 35 38 39 41 47 53 57 65 74 83 82 71 62 52 43 32 22 14 7 8 10 13 19 25 32 40 49 57 63 72 80 93 109
13 14 14 14 13 12 17 20 24 23 25 26 28 30 35 38 40 43 48 54 61 67 76 85 80 73 62 53 43 33 24 18 10 5 5 7 11 17 24 33 43 55 64 72 79 88 94
11 12 13 14 13 15 16 20 24 22 23 25 29 30 33 38 39 43 49 55 63 69 77 85 84 76 68 54 45 34 26 20 18 14 4 4 5 4 9 18 34 44 52 62 70 79 86
13 11 12 13 15 15 18 19 19 21 23 24 27 30 32 35 37 42 47 53 62 70 76 83 84 81 76 61 48 40 31 25 20 19 13 6 8 12 10 14 21 31 45 54 60 71 77
18 14 13 14 13 15 16 15 16 21 22 22 25 29 31 34 36 40 44 50 58 67 74 79 86 83 79 72 55 47 38 28 26 19 16 12 7 8 14 16 22 30 35 48 56 62 70
24 21 19 18 18 17 16 16 16 19 21 22 25 26 28 32 35 38 40 46 54 63 70 75 80 86 83 80 66 54 48 38 29 22 18 16 12 9 11 11 14 22 30 34 47 54 62
29 26 23 20 17 18 19 18 16 17 19 21 24 25 26 29 33 35 38 41 49 58 65 73 78 83 82 81 76 64 54 46 37 30 25 18 17 15 13 15 14 16 22 28 38 48 56
31 28 26 25 22 22 21 21 19 16 18 20 21 23 25 26 30 33 36 39 46 54 62 68 73 80 86 83 80 77 68 57 49 41 33 27 23 18 15 17 18 18 19 22 26 34 42
32 34 31 28 25 24 23 21 18 19 17 20 20 21 25 25 27 32 34 37 40 48 56 63 67 73 79 83 84 78 78 71 61 53 44 37 28 22 20 18 18 18 20 22 25 30 38
35 34 34 34 30 27 23 22 21 18 18 18 21 22 24 25 25 29 33 35 40 42 50 57 61 67 73 77 81 82 78 79 74 63 54 50 40 32 28 25 21 19 18 18 18 23 29
38 37 35 34 31 31 29 25 22 21 19 19 19 24 24 25 25 26 31 34 37 41 45 50 55 60 65 70 73 77 82 80 78 74 68 65 59 49 39 32 27 21 19 18 17 21 26
43 43 40 37 35 32 30 27 24 23 22 21 21 21 22 22 25 26 27 31 33 36 40 43 46 52 57 63 66 71 74 80 79 76 72 69 62 58 53 44 34 29 25 23 22 23 27
49 47 42 42 40 36 33 31 26 26 26 24 24 21 22 21 26 26 26 27 29 30 35 38 40 43 47 53 57 61 66 68 72 74 72 68 67 65 59 54 44 36 29 26 24 25 25
51 52 48 45 41 40 40 36 30 28 27 27 28 24 24 24 22 26 25 26 26 28 29 32 36 38 39 43 49 51 53 58 60 64 66 64 62 59 57 54 49 40 33 26 22 24 25
55 55 54 53 50 45 43 40 36 33 30 30 33 32 28 27 25 25 22 24 24 26 26 27 29 32 35 35 39 44 46 46 49 52 54 54 56 57 49 45 41 38 31 26 21 18 17
60 59 59 56 55 55 51 47 42 40 39 38 36 37 34 29 29 27 23 22 23 25 26 24 25 26 28 30 31 34 39 38 38 40 41 43 43 44 45 44 41 36 29 23 18 13 11
66 65 62 57 57 57 57 53 52 48 46 44 41 42 40 33 32 32 28 23 23 25 27 27 25 24 23 25 27 27 29 31 33 32 33 33 35 35 36 36 34 34 35 22 14 9 3
72 69 66 62 58 55 58 56 55 51 48 47 45 44 44 42 35 34 30 29 26 27 26 28 26 27 25 23 21 22 26 27 26 26 25 26 26 26 27 29 26 23 23 24 19 13 7
79 77 73 69 64 63 59 58 58 58 52 50 48 49 48 47 44 39 37 36 36 32 30 28 27 25 23 23 22 26 28 25 24 23 22 22 21 24 24 21 21 19 19 17 17 16 16
89 83 78 74 70 67 66 63 60 59 57 52 52 50 47 44 45 43 39 39 39 36 35 33 29 29 27 26 22 29 29 29 28 25 21 20 22 21 22 23 26 22 17 15 15 19 19
95 90 87 81 76 71 68 69 66 63 62 60 56 54 48 46 45 45 43 40 41 40 39 38 35 31 28 31 32 33 37 33 30 29 28 26 23 25 27 28 29 29 27 27 28 30 31
96 95 93 88 84 81 78 72 65 67 66 60 57 55 46 44 46 48 46 45 43 41 41 42 41 39 36 35 36 36 36 35 33 33 34 33 32 31 30 30 33 36 34 32 35 34 36
98 97 96 94 90 86 78 77 70 67 68 64 64 61 57 52 51 49 50 47 45 45 49 47 46 44 44 40 39 40 38 38 38 36 35 35 34 36 35 36 39 39 39 40 42 43 46
100 98 99 96 91 86 81 80 73 70 69 68 66 62 64 63 60 53 54 51 50 46 47 48 47 49 49 49 48 46 45 46 45 44 46 45 43 41 43 47 45 45 44 45 47 49 52
106 102 100 94 93 88 84 81 80 75 74 71 73 69 67 63 61 58 59 59 55 54 51 52 54 58 57 57 57 53 50 47 50 48 52 51 51 50 56 55 56 54 54 54 57 61 64
Wind_Direction
302 300 292 283 286 296 308 309 332 333 332 338 338 336 336 335 337 338 336 333 336 336 333 325 319 324 323 320 316 307 294 279 268 262 254 248 244 239 237 233 232 227 226 225 224 224 224
312 298 293 291 280 309 310 325 332 343 339 343 344 343 347 344 346 343 340 340 346 344 338 333 329 334 334 333 329 318 300 284 271 260 253 246 240 234 231 229 227 223 222 222 222 222 222
305 300 291 285 280 309 328 351 344 345 342 344 345 347 348 347 347 346 345 351 353 352 349 345 344 345 345 346 339 327 312 297 269 256 245 239 231 227 225 222 222 219 218 218 218 219 221
313 306 288 282 277 294 328 337 346 347 345 344 345 346 348 348 348 350 353 358 360 359 0 357 353 354 356 354 349 341 330 302 274 258 244 237 229 225 221 218 216 216 216 217 217 217 220
313 306 300 282 263 275 304 323 336 343 345 341 341 347 347 349 349 352 358 1 4 6 7 4 1 1 2 1 358 353 346 335 318 268 245 237 227 222 217 211 209 206 208 213 214 216 218
305 309 300 291 265 281 303 315 326 336 341 341 341 346 349 350 351 354 3 5 8 11 13 11 5 8 7 6 6 1 5 3 0 331 224 211 219 212 212 210 207 206 206 209 209 213 216
281 296 299 292 279 289 297 310 320 329 335 338 338 346 350 352 356 359 7 7 12 15 19 17 11 13 12 12 14 11 18 25 26 29 52 131 144 162 204 212 209 208 208 211 212 215 214
258 274 289 294 289 294 297 304 315 322 330 335 336 344 350 352 359 2 9 9 13 16 21 21 16 19 17 18 20 25 24 33 31 39 41 70 149 164 184 205 210 214 206 208 213 215 215
253 255 270 280 286 296 299 301 313 322 323 333 336 341 352 354 0 4 10 12 13 15 19 20 20 21 23 23 25 31 38 40 40 41 45 51 84 162 181 187 194 205 209 205 205 212 216
253 255 263 267 276 276 291 301 308 313 322 332 340 340 351 355 3 6 9 13 15 14 17 18 22 22 27 27 29 35 38 45 49 49 50 62 81 99 139 162 189 192 198 203 205 209 210
251 258 255 257 263 275 282 289 299 310 321 326 336 341 347 352 359 4 10 10 16 15 15 18 21 25 27 31 31 33 40 43 43 48 56 61 72 86 114 132 148 165 183 193 200 202 204
253 253 258 258 262 270 277 286 291 300 313 325 329 340 345 349 355 1 10 10 15 15 17 19 21 23 27 30 33 35 38 42 45 44 50 57 66 80 101 117 127 142 161 177 188 198 204
254 254 255 258 261 266 273 279 286 295 308 322 325 329 337 343 349 356 4 9 12 15 17 19 20 23 24 27 31 37 38 42 45 48 51 54 62 73 83 97 112 130 145 157 171 186 197
256 258 259 258 260 263 268 275 281 286 301 310 320 327 328 337 342 350 356 1 8 11 17 20 20 21 24 24 28 33 38 41 43 48 53 55 56 64 73 79 86 97 119 135 153 172 185
257 259 258 261 265 264 266 269 274 284 295 308 310 318 325 331 337 340 347 353 359 5 10 17 22 19 22 24 25 31 34 38 41 44 48 49 49 54 63 72 78 88 105 120 134 151 166
258 259 260 258 261 266 268 274 280 284 290 296 304 310 320 327 338 337 336 345 351 357 3 9 17 20 18 22 26 27 31 34 38 41 43 44 49 53 54 59 69 79 95 104 120 137 149
254 257 258 261 263 260 262 267 271 281 289 291 290 302 307 317 328 336 337 334 342 349 357 2 7 16 19 19 22 26 28 32 35 39 41 41 43 45 49 51 54 66 80 93 112 125 137
253 252 255 256 257 262 267 266 263 269 276 282 285 289 297 302 310 315 326 334 330 340 349 358 1 3 14 18 18 21 25 26 32 36 42 44 44 44 46 48 52 54 61 76 103 124 137
251 253 253 255 254 256 258 262 265 263 268 277 282 283 287 295 295 300 310 323 329 327 336 347 355 359 1 10 15 14 20 23 27 31 36 41 44 44 47 49 50 52 57 66 76 100 124
251 250 252 253 255 257 257 256 253 258 258 261 270 276 283 286 292 288 295 306 315 325 322 327 340 353 357 355 3 9 10 15 22 26 28 34 34 39 39 48 50 46 49 55 62 87 120
248 251 251 252 253 255 257 259 259 260 262 268 268 273 278 281 285 283 288 299 302 313 316 317 318 332 344 348 350 356 358 4 10 16 18 22 24 27 30 33 34 35 40 44 48 57 87
249 249 248 250 250 253 257 256 258 258 266 264 263 268 274 278 279 282 276 288 295 301 306 308 312 309 320 328 333 341 341 345 354 1 7 7 10 16 16 16 25 19 28 33 43 41 38
247 248 247 246 248 250 252 258 260 258 258 262 265 266 269 275 278 278 277 279 286 292 293 301 301 300 304 309 311 319 324 329 333 339 347 350 350 350 353 357 355 4 356 353 359 354 346
246 246 246 246 245 252 253 253 258 258 257 258 262 267 270 271 271 274 271 277 282 282 285 292 291 291 290 293 293 302 307 314 315 319 324 329 330 330 329 329 326 326 327 313 307 309 307
243 244 245 245 247 249 255 250 253 260 259 256 259 264 266 268 273 275 273 273 276 277 277 283 288 290 291 292 288 291 299 302 305 304 305 309 310 312 313 313 310 306 305 300 296 301 301
241 241 244 245 246 250 252 253 250 254 258 254 258 257 259 263 268 273 273 271 271 272 272 275 280 283 285 285 287 287 290 293 295 297 298 297 297 297 297 298 300 299 299 295 293 294 292
239 240 242 244 246 249 250 250 247 250 254 255 258 257 257 262 266 268 269 267 269 272 268 272 277 276 278 281 287 284 282 285 291 288 294 296 296 291 292 295 293 287 287 291 292 293 291
238 240 242 243 243 246 246 249 250 247 250 251 254 256 257 261 266 267 267 267 269 269 271 270 270 271 275 276 281 283 280 282 284 289 287 291 293 291 293 292 289 290 292 291 292 292 292
237 238 242 244 241 245 244 248 246 249 248 250 252 254 255 260 264 266 265 267 269 271 272 271 269 270 273 277 276 279 278 280 279 284 285 287 290 285 291 290 288 290 290 293 293 292 293